User: anonymous   Login
Location: Unspecified
(0.0000°N, 0.0000°E)
Time: 03:20:40
(UTC+00:00)
Language:

TBA - TO BE ASSIGNED - Orbit

View from above orbital plane
View from above orbital plane
View from above satellite
View from above satellite

Ground track
Ground track

The orbit is defined by the following mean orbital elements,

1 68480U          26145.34326278 +.00000000 +00000-0 +26839-3 0 00003
2 68480  97.7610 104.0469 0004012  13.6425 346.4902 14.92761579    09
Epoch (UTC): 25 May 2026 08:14:17
Eccentricity: 0.0004012
inclination: 97.7610°
perigee height: 587 km
apogee height: 592 km
right ascension of ascending node: 104.0469°
argument of perigee: 13.6425°
revolutions per day: 14.92761579
mean anomaly at epoch: 346.4902°

The dashed part of the orbit path shows where the satellite is in the earth's shadow,  

DLR